Location: Unspecified
(0.0000°N, 0.0000°E)
Time: 09:06:27
(UTC+00:00)

NUDT-PHONESAT - Visible Passes

Search period start: 24 January 2020 00:00
Search period end: 03 February 2020 00:00
Orbit: 485 x 505 km, 97.4° (Epoch: 23 January)

Date Brightness Start Highest point End Pass type
(mag) Time Alt. Az. Time Alt. Az. Time Alt. Az.
24 Jan ? 18:32:59 10° SSW 18:36:22 35° W 18:39:44 10° NW visible
27 Jan ? 05:40:32 10° NE 05:43:34 26° ESE 05:46:39 10° SSE visible
27 Jan ? 19:05:09 10° SW 19:06:32 12° WSW 19:07:55 10° W visible
28 Jan ? 05:21:02 10° ENE 05:22:31 12° ESE 05:23:59 10° SE visible
28 Jan ? 18:42:24 10° SSW 18:45:28 25° WSW 18:48:30 10° NW visible
01 Feb ? 05:29:10 10° ENE 05:31:34 17° ESE 05:33:59 10° SE visible
01 Feb ? 18:51:57 10° SW 18:54:31 18° WSW 18:57:04 10° WNW visible
